This demonstration page uses our WeatherBlox Daily Observations layout. Learn more.

41.55636, -103.73856

Hourly Observations for October 12, 2019

Temp ( °F °C ) Dew Point ( °F °C ) Humidity (%) Winds ( mph kmh ) Pressure ( in mb ) Visibility ( mi km ) Precip ( " mm )
12:58 am 00:58 undefined 24 -4.6 18 -7.9 78 78 NW 8 13 30.14 1021 10 16.0934 0 0
1:58 am 01:58 undefined 26 -3.6 18 -8 72 72 NW 9 15 30.13 1020 10 16.0934 0 0
2:58 am 02:58 undefined 23 -4.9 15 -9.3 72 72 NNW 7 11 30.11 1020 10 16.0934 0 0
3:58 am 03:58 undefined 27 -3 15 -9.2 63 63 NNW 7 11 30.1 1019 10 16.0934 0 0
4:58 am 04:58 undefined 23 -5 14 -9.9 69 69 NW 6 9 30.09 1019 10 16.0934 0 0
5:58 am 05:58 undefined 22 -5.4 14 -9.9 71 71 NNW 7 11 30.09 1019 10 16.0934 0 0
6:58 am 06:58 undefined 22 -5.4 15 -9.4 74 74 WNW 6 9 30.12 1020 10 16.0934 0 0
7:58 am 07:58 undefined 25 -3.9 18 -7.9 74 74 W 6 9 30.12 1020 10 16.0934 0 0
8:58 am 08:58 undefined 35 1.6 20 -6.5 55 55 NNW 6 9 30.08 1019 10 16.0934 0 0
9:58 am 09:58 undefined 42 5.8 17 -8.3 36 36 NW 16 26 30.07 1018 10 16.0934 0 0
10:58 am 10:58 undefined 45 7.4 18 -7.9 33 33 NNW 15 24 30.05 1018 10 16.0934 0 0
11:58 am 11:58 undefined 49 9.5 17 -8.3 28 28 WNW 18 30 30.02 1017 10 16.0934 0 0
12:58 pm 12:58 undefined 53 11.8 17 -8.2 24 24 NW 17 28 29.98 1015 10 16.0934 0 0
1:58 pm 13:58 undefined 56 13.3 16 -9 20 20 NW 18 30 29.94 1014 10 16.0934 0 0
2:58 pm 14:58 undefined 57 13.9 20 -6.9 23 23 N 14 22 29.93 1014 10 16.0934 0 0
3:58 pm 15:58 undefined 56 13.1 21 -6 26 26 N 12 19 29.92 1013 10 16.0934 0 0
4:58 pm 16:58 undefined 54 12.4 22 -5.7 28 28 N 6 9 29.93 1014 10 16.0934 0 0
5:58 pm 17:58 undefined 50 9.9 22 -5.3 34 34 E 3 6 29.97 1015 10 16.0934 0 0
6:58 pm 18:58 undefined 45 7.2 21 -5.9 39 39 SSE 3 6 29.98 1015 10 16.0934 0 0
7:58 pm 19:58 undefined 39 3.9 22 -5.7 50 50 Calm 30 1016 10 16.0934 0 0
8:58 pm 20:58 undefined 36 2.4 21 -6 54 54 Calm 29.98 1015 10 16.0934 0 0
9:58 pm 21:58 undefined 32 0.1 21 -5.9 64 64 N 6 9 29.99 1016 10 16.0934 0 0
10:58 pm 22:58 undefined 33 0.4 20 -6.9 58 58 Calm 29.98 1015 10 16.0934 0 0
11:58 pm 23:58 undefined 34 1.3 23 -5.1 63 63 Calm 29.96 1015 10 16.0934 0 0

Powered by AerisWeather